Cherryvale, KS

1:12 AM CDT on September 27, 2016 (GMT -0500)
Tri-City

Weather History for KPPF - February, 2014

Change the Weather History Date:

Thursday, February 20, 2014

  Actual Average Record
Temperature  
Mean Temperature 52 °F -  
Max Temperature 64 °F 50 °F 79 °F (2016)
Min Temperature 37 °F 28 °F 11 °F (1978)
Degree Days  
Heating Degree Days 14    
Growing Degree Days 2 (Base 50)    
Moisture  
Dew Point 39 °F    
Average Humidity 62    
Maximum Humidity 86    
Minimum Humidity 29    
Precipitation  
Precipitation 0.00 in - - ()
Sea Level Pressure  
Sea Level Pressure 29.61 in    
Wind  
Wind Speed 15 mph (WSW)    
Max Wind Speed 31 mph    
Max Gust Speed 44 mph    
Visibility 10 miles    
Events      
Averages and records for this station are not official NWS values.
T = Trace of Precipitation, MM = Missing Value Source: NWS Daily Summary

Daily Weather History Graph

Daily Weather History Graph

Search for Another Location

Airport or City:

Trip Planner

Search our weather history database for the weather conditions in past years. The results will help you decide how hot, cold, wet, or windy it might be!

Date:

Astronomy

Feb. 20, 2014 Rise Set
Actual Time 7:04 AM CST 6:06 PM CST
Civil Twilight 6:38 AM CST 6:33 PM CST
Nautical Twilight 6:08 AM CST 7:03 PM CST
Astronomical Twilight 5:37 AM CST 7:34 PM CST
Moon 11:54 PM CST (2/20) 9:56 AM CST (2/20)
Length of Visible Light 11h 54m
Length of Day
11h 02m
Waning Gibbous, 70% of the Moon is Illuminated
Feb 20
Waning Gibbous
Feb 22
Last Quarter
Mar 1
New
Mar 8
First Quarter
Mar 16
Full

Hourly Weather History & Observations

Time (CST) Temp. Windchill Dew Point Humidity Pressure Visibility Wind Dir Wind Speed Gust Speed Precip Events Conditions
12:08 AM 60.1 °F - 55.9 °F 86% 29.56 in 9.0 mi SSE 8.1 mph - N/A   Overcast
12:52 AM 61.0 °F - 55.9 °F 83% 29.52 in 10.0 mi SSE 8.1 mph - N/A   Overcast
1:52 AM 60.1 °F - 54.0 °F 80% 29.49 in 10.0 mi ESE 5.8 mph - N/A   Overcast
2:52 AM 61.0 °F - 55.9 °F 83% 29.43 in 10.0 mi SSE 8.1 mph - N/A   Overcast
3:52 AM 62.1 °F - 55.9 °F 80% 29.39 in 10.0 mi SSE 10.4 mph 23.0 mph N/A   Overcast
4:52 AM 63.0 °F - 57.0 °F 81% 29.36 in 10.0 mi South 11.5 mph 23.0 mph N/A   Overcast
5:52 AM 63.0 °F - 57.0 °F 81% 29.34 in 10.0 mi South 18.4 mph 25.3 mph N/A   Overcast
6:41 AM 63.0 °F - 57.0 °F 81% 29.35 in 10.0 mi South 13.8 mph 23.0 mph N/A   Overcast
6:52 AM 63.0 °F - 57.0 °F 81% 29.34 in 10.0 mi South 13.8 mph 25.3 mph N/A   Overcast
7:15 AM 64.0 °F - 57.0 °F 78% 29.35 in 10.0 mi SSW 12.7 mph 21.9 mph N/A   Overcast
7:37 AM 63.0 °F - 57.0 °F 81% 29.35 in 8.0 mi SSW 11.5 mph 25.3 mph N/A   Mostly Cloudy
7:52 AM 63.0 °F - 57.0 °F 81% 29.34 in 9.0 mi SSW 15.0 mph 23.0 mph N/A   Partly Cloudy
8:52 AM 64.9 °F - 50.0 °F 58% 29.35 in 10.0 mi SW 25.3 mph 33.4 mph N/A   Clear
9:52 AM 60.1 °F - 44.1 °F 55% 29.41 in 10.0 mi SW 23.0 mph 35.7 mph N/A   Mostly Cloudy
10:02 AM 57.9 °F - 46.0 °F 65% 29.45 in 10.0 mi West 27.6 mph 38.0 mph N/A   Overcast
10:14 AM 48.9 °F - 41.0 °F 74% 29.49 in 10.0 mi WNW 31.1 mph 43.7 mph N/A   Overcast
10:28 AM 46.9 °F - 39.0 °F 74% 29.52 in 10.0 mi WNW 26.5 mph 38.0 mph N/A   Overcast
10:52 AM 44.1 °F 34.6 °F 35.1 °F 71% 29.57 in 10.0 mi NW 26.5 mph 40.3 mph N/A   Overcast
11:52 AM 43.0 °F 33.1 °F 32.0 °F 65% 29.66 in 10.0 mi NW 26.5 mph 40.3 mph N/A   Overcast
12:52 PM 46.0 °F 36.7 °F 32.0 °F 58% 29.75 in 10.0 mi WNW 29.9 mph 39.1 mph N/A   Overcast
1:10 PM 46.0 °F 36.9 °F 32.0 °F 58% 29.78 in 10.0 mi NW 28.8 mph 39.1 mph N/A   Overcast
1:52 PM 46.9 °F - 32.0 °F 56% 29.80 in 10.0 mi NW 21.9 mph 33.4 mph N/A   Mostly Cloudy
2:52 PM 50.0 °F - 28.9 °F 44% 29.83 in 10.0 mi NW 25.3 mph 33.4 mph 0.00 in   Mostly Cloudy
3:52 PM 52.0 °F - 25.0 °F 35% 29.84 in 10.0 mi WNW 24.2 mph 34.5 mph N/A   Mostly Cloudy
4:52 PM 50.0 °F - 21.9 °F 33% 29.86 in 10.0 mi WNW 16.1 mph 25.3 mph N/A   Clear
5:52 PM 50.0 °F - 19.0 °F 29% 29.87 in 10.0 mi West 12.7 mph - N/A   Partly Cloudy
6:52 PM 46.9 °F - 16.0 °F 29% 29.89 in 10.0 mi West 12.7 mph - N/A   Clear
7:52 PM 46.0 °F 39.6 °F 16.0 °F 30% 29.91 in 10.0 mi West 15.0 mph - N/A   Clear
8:52 PM 44.1 °F 37.4 °F 17.1 °F 34% 29.93 in 10.0 mi West 13.8 mph - N/A   Clear
9:52 PM 42.1 °F 35.7 °F 18.0 °F 38% 29.95 in 10.0 mi West 11.5 mph - N/A   Clear
10:52 PM 39.9 °F 34.5 °F 18.0 °F 41% 29.96 in 10.0 mi West 8.1 mph - N/A   Clear
11:52 PM 37.0 °F 31.6 °F 18.0 °F 46% 29.97 in 10.0 mi WSW 6.9 mph - N/A   Clear